Home   Weather   Lohne (Oldenburg)   Past weeks

Flag for Germany Past Weather in Lohne (Oldenburg), Lower Saxony, Germany — Yesterday and Last 2 Weeks

Now
39 °F

Clear.


Feels Like: 34 °F
Forecast: 34 / 51 °F
Wind: 7 mph from Southwest

Location: Bremen Airport

Current Time: Apr 28, 2017 at 2:55:41 am

Latest Report: Apr 28, 2017 at 2:20 am


Visibility: 10 mi

Pressure: 29.95 "Hg

Humidity: 81%

Dew Point: 34 °F

Location of Lohne (Oldenburg)Location

Past Weather in Lohne (Oldenburg) — Graph

°F

Lohne (Oldenburg) Temperature Yesterday

Maximum temperature yesterday: 52 °F (at 2:20 pm)
Minimum temperature yesterday: 28 °F (at 4:50 am)
Average temperature yesterday: 41 °F

High & Low Weather Summary for the Past Weeks

 TemperatureHumidityPressure
High57 °F (Apr 21, 11:50 am)100% (Apr 14, 5:20 am)30.63 "Hg (Apr 14, 5:20 am)
Low27 °F (Apr 20, 6:20 am)35% (Apr 20, 5:50 pm)29.59 "Hg (Apr 25, 5:20 am)
Average43 °F74%30.08 "Hg
* Reported Apr 13 1:20 am — Apr 28 1:20 am, Lohne (Oldenburg), Weather by CustomWeather, © 2017

Note: Actual official high and low records may vary slightly from our data, if they occured in-between our weather recording intervals... More about our weather records

Advertising

Lohne (Oldenburg) Weather History for the Previous 24 Hours

Scroll right to see more
 ConditionsComfort  
Time TempWeatherWind HumidityBarometerVisibility
1:20 am
Fri, Apr 28
39 °FClear.6 mph81%29.95 "Hg10 mi
12:50 am39 °FClear.6 mph81%29.95 "Hg10 mi
12:20 am39 °FClear.6 mph81%29.95 "Hg10 mi
11:50 pm
Thu, Apr 27
39 °FClear.8 mph75%29.95 "Hg10 mi
11:20 pm39 °FClear.8 mph75%29.95 "Hg10 mi
10:50 pm43 °FClear.8 mph71%29.95 "Hg10 mi
10:20 pm41 °FClear.7 mph76%29.95 "Hg10 mi
9:50 pm41 °FClear.6 mph76%29.95 "Hg10 mi
8:50 pm43 °FPassing clouds.7 mph71%29.95 "HgN/A
8:20 pm46 °FPartly sunny.9 mph62%29.95 "HgN/A
7:50 pm48 °FBroken clouds.9 mph58%29.95 "HgN/A
7:20 pm48 °FPartly sunny.7 mph58%29.95 "HgN/A
6:50 pm48 °FPartly sunny.10 mph54%29.95 "HgN/A
6:20 pm48 °FPartly sunny.9 mph54%29.95 "HgN/A
5:50 pm48 °FPartly sunny.10 mph54%29.95 "HgN/A
5:20 pm50 °FPartly sunny.13 mph50%29.95 "HgN/A
4:50 pm50 °FPartly sunny.12 mph50%29.95 "HgN/A
4:20 pm50 °FPartly sunny.9 mph50%29.95 "HgN/A
3:50 pm48 °FBroken clouds.8 mph58%29.95 "HgN/A
3:20 pm48 °FScattered clouds.12 mph58%29.95 "HgN/A
2:50 pm46 °FSprinkles. Scattered clouds.12 mph62%29.98 "HgN/A
2:20 pm52 °FScattered clouds.10 mph50%29.95 "HgN/A
1:50 pm48 °FScattered clouds.9 mph54%29.95 "HgN/A
1:20 pm46 °FScattered clouds.9 mph53%29.98 "HgN/A
12:50 pm46 °FScattered clouds.13 mph53%29.98 "HgN/A
12:20 pm48 °FBroken clouds.9 mph50%29.98 "HgN/A
11:50 am46 °FBroken clouds.10 mph53%29.98 "HgN/A
11:20 am48 °FBroken clouds.8 mph50%29.98 "HgN/A
10:50 am46 °FBroken clouds.10 mph57%29.98 "HgN/A
10:20 am46 °FScattered clouds.8 mph57%29.98 "HgN/A
9:50 am45 °FScattered clouds.8 mph66%29.98 "HgN/A
9:20 am45 °FScattered clouds.7 mph71%29.98 "HgN/A
8:50 am43 °FScattered clouds.7 mph76%29.98 "HgN/A
8:20 am39 °FScattered clouds.3 mph87%29.98 "HgN/A
7:50 am36 °FFog.2 mph87%29.98 "HgN/A
7:20 am34 °FFog.2 mph93%29.98 "HgN/A
6:50 am30 °FFog.2 mph100%29.95 "HgN/A
5:50 am30 °FFog.3 mph100%29.95 "HgN/A
5:20 am30 °FFog.2 mph100%29.95 "HgN/A
4:50 am28 °FFog.2 mph100%29.95 "HgN/A
4:20 am30 °FFog.3 mph93%29.95 "HgN/A
3:50 am30 °FFog.2 mph93%29.95 "HgN/A
3:20 am32 °FFog.3 mph93%29.95 "HgN/A
2:50 am32 °FFog.2 mph93%29.95 "HgN/A
2:20 am32 °FClear.5 mph93%29.95 "Hg10 mi
Weather by CustomWeather, © 2017

See weather overviewHow to use our weather pages